Location: Newark
(48.0000°N, 67.0000°E)
Time: 05:35:24
(UTC+00:00)

Transit 4A - Visible Passes

Search period start: 27 February 2020 00:00
Search period end: 08 March 2020 00:00
Orbit: 872 x 973 km, 66.8° (Epoch: 26 February)

Date Brightness Start Highest point End Pass type
(mag) Time Alt. Az. Time Alt. Az. Time Alt. Az.
27 Feb 10.0 00:50:45 10° NNW 00:54:46 19° NNE 00:58:48 10° ENE visible
27 Feb 10.4 21:29:28 13° N 21:29:28 13° N 21:30:28 10° NNE visible
27 Feb 10.2 23:13:37 10° NNW 23:15:49 12° N 23:18:01 10° NNE visible
28 Feb 9.8 00:59:58 10° NNW 01:04:30 23° NNE 01:09:05 10° E visible
28 Feb 10.4 21:38:21 13° N 21:38:21 13° N 21:39:44 10° NNE visible
28 Feb 10.2 23:23:10 10° NNW 23:25:44 13° N 23:28:18 10° NE visible
29 Feb 9.6 01:09:10 10° NNW 01:14:12 28° NE 01:19:14 10° E visible
29 Feb 10.3 21:47:13 13° N 21:47:13 13° N 21:49:07 10° NNE visible
29 Feb 10.2 23:32:32 10° NNW 23:35:38 14° NNE 23:38:44 10° NE visible
01 Mar 9.2 01:18:24 10° NNW 01:23:47 36° NE 01:29:13 10° ESE visible
01 Mar 10.3 21:56:04 12° N 21:56:29 12° N 21:58:40 10° NNE visible
01 Mar 10.2 23:41:48 10° NNW 23:45:29 17° NNE 23:49:09 10° ENE visible
02 Mar 8.8 01:27:38 10° NNW 01:33:19 48° NE 01:39:02 10° ESE visible
02 Mar 10.7 20:21:25 10° NNE 20:21:25 10° NNE 20:21:31 10° NNE visible
02 Mar 10.3 22:04:54 11° NNW 22:06:25 12° N 22:08:31 10° NNE visible
02 Mar 10.0 23:51:02 10° NNW 23:55:16 20° NNE 23:59:30 10° ENE visible
03 Mar 8.3 01:36:55 10° NNW 01:42:45 65° NE 01:48:39 10° SE visible
03 Mar 10.6 20:30:14 11° N 20:30:14 11° N 20:30:46 10° NNE visible
03 Mar 10.4 22:14:04 10° NNW 22:16:22 12° N 22:18:41 10° NNE visible
04 Mar 9.8 00:00:15 10° NNW 00:05:00 24° NE 00:09:44 10° E visible
04 Mar 10.5 20:39:01 12° N 20:39:01 12° N 20:40:05 10° NNE visible
04 Mar 10.4 22:23:32 10° NNW 22:26:17 13° NNE 22:29:03 10° NE visible
05 Mar 9.5 00:09:28 10° NNW 00:14:38 31° NE 00:19:50 10° E visible
05 Mar 10.5 20:47:45 12° N 20:47:45 12° N 20:49:30 10° NNE visible
05 Mar 10.3 22:32:51 10° NNW 22:36:10 15° NNE 22:39:29 10° NE visible
06 Mar 9.1 00:18:42 10° NNW 00:24:12 40° NE 00:29:46 10° ESE visible
06 Mar 10.5 20:56:26 12° N 20:57:03 12° N 20:59:09 10° NNE visible
06 Mar 10.2 22:42:06 10° NNW 22:45:59 18° NNE 22:49:54 10° ENE visible
07 Mar 8.6 00:27:56 10° NNW 00:33:41 54° NE 00:39:30 10° SE visible
07 Mar 10.6 19:21:33 11° NNE 19:21:33 11° NNE 19:21:50 10° NNE visible
07 Mar 10.5 21:05:01 10° NNW 21:06:59 12° N 21:09:08 10° NNE visible
07 Mar 10.0 22:51:20 10° NNW 22:55:45 21° NNE 23:00:12 10° E visible
